Time,TemperatureF,DewpointF,PressureIn,WindDirection,WindDirectionDegrees,WindSpeedMPH,WindSpeedGustMPH,Humidity,HourlyPrecipIn,Conditions,Clouds,dailyrainin,SoftwareType,DateUTC
2013-04-16 00:03:00,74.0,70.0,30.04,NE,43,0.0,0.0,88,0.00,,,0.01,,2013-04-16 04:03:00,
2013-04-16 00:13:00,74.0,70.0,30.04,NE,43,0.0,0.0,88,0.00,,,0.01,,2013-04-16 04:13:00,
2013-04-16 00:23:00,74.0,70.0,30.04,NE,43,0.0,0.0,88,0.00,,,0.01,,2013-04-16 04:23:00,
2013-04-16 00:33:00,73.0,70.0,30.04,NE,43,0.0,0.0,89,0.00,,,0.01,,2013-04-16 04:33:00,
2013-04-16 00:42:00,73.0,70.0,30.04,NE,43,0.0,0.0,89,0.00,,,0.01,,2013-04-16 04:42:00,
2013-04-16 00:52:00,73.0,70.0,30.03,NE,43,0.0,0.0,90,0.00,,,0.01,,2013-04-16 04:52:00,
2013-04-16 01:03:00,73.0,70.0,30.03,NE,43,0.0,0.0,90,0.00,,,0.01,,2013-04-16 05:03:00,
2013-04-16 01:12:00,73.0,70.0,30.03,NE,43,0.0,0.0,90,0.00,,,0.01,,2013-04-16 05:12:00,
2013-04-16 01:22:00,72.0,69.0,30.03,NE,43,0.0,0.0,91,0.00,,,0.01,,2013-04-16 05:22:00,
2013-04-16 01:32:00,72.0,69.0,30.03,NE,43,0.0,0.0,91,0.00,,,0.01,,2013-04-16 05:32:00,
2013-04-16 01:42:00,72.0,69.0,30.03,NE,43,0.0,0.0,91,0.00,,,0.01,,2013-04-16 05:42:00,
2013-04-16 01:52:00,72.0,69.0,30.02,NE,43,0.0,0.0,91,0.00,,,0.01,,2013-04-16 05:52:00,
2013-04-16 02:02:00,71.0,68.0,30.02,NE,43,0.0,0.0,91,0.00,,,0.01,,2013-04-16 06:02:00,
2013-04-16 02:12:00,71.0,68.0,30.02,NE,43,0.0,0.0,91,0.00,,,0.01,,2013-04-16 06:12:00,
2013-04-16 02:22:00,71.0,68.0,30.02,NE,43,0.0,0.0,91,0.00,,,0.01,,2013-04-16 06:22:00,
2013-04-16 02:32:00,71.0,68.0,30.02,NE,43,0.0,0.0,91,0.00,,,0.01,,2013-04-16 06:32:00,
2013-04-16 03:02:00,70.0,68.0,30.01,NE,43,0.0,0.0,92,0.00,,,0.01,,2013-04-16 07:02:00,
2013-04-16 03:12:00,70.0,68.0,30.01,NE,43,0.0,0.0,92,0.00,,,0.01,,2013-04-16 07:12:00,
2013-04-16 03:22:00,70.0,68.0,30.01,NE,43,0.0,0.0,92,0.00,,,0.01,,2013-04-16 07:22:00,
2013-04-16 03:32:00,70.0,68.0,30.00,NE,43,0.0,0.0,93,0.00,,,0.01,,2013-04-16 07:32:00,
2013-04-16 03:42:00,70.0,68.0,30.00,NE,43,0.0,0.0,93,0.00,,,0.01,,2013-04-16 07:42:00,
2013-04-16 03:53:00,70.0,68.0,30.00,NE,43,0.0,0.0,93,0.00,,,0.01,,2013-04-16 07:53:00,
2013-04-16 04:02:00,70.0,68.0,30.00,NE,43,0.0,0.0,93,0.00,,,0.01,,2013-04-16 08:02:00,
2013-04-16 04:12:00,70.0,68.0,30.00,NE,43,0.0,0.0,93,0.00,,,0.01,,2013-04-16 08:12:00,
2013-04-16 04:22:00,70.0,68.0,30.01,NE,43,0.0,0.0,93,0.00,,,0.01,,2013-04-16 08:22:00,
2013-04-16 04:32:00,70.0,68.0,30.01,NE,43,0.0,0.0,93,0.00,,,0.01,,2013-04-16 08:32:00,
2013-04-16 04:42:00,70.0,68.0,30.01,NE,43,0.0,0.0,93,0.00,,,0.01,,2013-04-16 08:42:00,
2013-04-16 04:52:00,70.0,68.0,30.01,NE,43,0.0,1.0,93,0.00,,,0.01,,2013-04-16 08:52:00,
2013-04-16 05:02:00,70.0,68.0,30.01,NE,43,0.0,1.0,93,0.00,,,0.01,,2013-04-16 09:02:00,
2013-04-16 05:12:00,70.0,68.0,30.01,NE,43,0.0,1.0,93,0.00,,,0.01,,2013-04-16 09:12:00,
2013-04-16 05:22:00,70.0,68.0,30.01,ENE,58,0.0,0.0,93,0.00,,,0.00,,2013-04-16 09:22:00,
2013-04-16 05:33:00,70.0,68.0,30.01,ENE,58,0.0,0.0,93,0.00,,,0.00,,2013-04-16 09:33:00,
2013-04-16 05:43:00,70.0,68.0,30.01,ENE,58,0.0,0.0,93,0.00,,,0.00,,2013-04-16 09:43:00,
2013-04-16 05:53:00,70.0,68.0,30.01,ENE,58,0.0,0.0,93,0.00,,,0.00,,2013-04-16 09:53:00,
2013-04-16 06:03:00,70.0,68.0,30.01,ENE,58,0.0,0.0,93,0.00,,,0.00,,2013-04-16 10:03:00,
2013-04-16 06:13:00,70.0,68.0,30.01,ENE,58,0.0,0.0,93,0.00,,,0.00,,2013-04-16 10:13:00,
2013-04-16 06:23:00,69.0,67.0,30.02,ENE,58,0.0,0.0,94,0.00,,,0.00,,2013-04-16 10:23:00,
2013-04-16 06:33:00,69.0,67.0,30.03,ENE,58,0.0,0.0,94,0.00,,,0.00,,2013-04-16 10:33:00,
2013-04-16 06:43:00,69.0,67.0,30.03,ENE,58,0.0,0.0,94,0.00,,,0.00,,2013-04-16 10:43:00,
2013-04-16 06:53:00,68.0,66.0,30.03,ENE,58,0.0,0.0,93,0.00,,,0.00,,2013-04-16 10:53:00,
2013-04-16 07:02:00,68.0,66.0,30.03,ENE,58,0.0,0.0,94,0.00,,,0.00,,2013-04-16 11:02:00,
2013-04-16 07:12:00,68.0,66.0,30.03,ENE,58,0.0,0.0,94,0.00,,,0.00,,2013-04-16 11:12:00,
2013-04-16 07:22:00,68.0,66.0,30.03,ENE,58,0.0,0.0,94,0.00,,,0.00,,2013-04-16 11:22:00,
2013-04-16 07:32:00,68.0,66.0,30.04,ENE,58,0.0,0.0,94,0.00,,,0.00,,2013-04-16 11:32:00,
2013-04-16 07:42:00,68.0,66.0,30.04,ENE,58,0.0,0.0,94,0.00,,,0.00,,2013-04-16 11:42:00,
2013-04-16 07:53:00,68.0,66.0,30.04,ENE,58,0.0,0.0,94,0.00,,,0.00,,2013-04-16 11:53:00,
2013-04-16 08:02:00,69.0,67.0,30.06,ENE,58,0.0,0.0,94,0.00,,,0.00,,2013-04-16 12:02:00,
2013-04-16 08:12:00,69.0,67.0,30.06,ENE,58,0.0,0.0,94,0.00,,,0.00,,2013-04-16 12:12:00,
2013-04-16 08:22:00,70.0,68.0,30.07,ENE,59,0.0,0.0,94,0.00,,,0.00,,2013-04-16 12:22:00,
2013-04-16 08:32:00,70.0,68.0,30.07,ENE,59,0.0,0.0,94,0.00,,,0.00,,2013-04-16 12:32:00,
2013-04-16 08:42:00,70.0,68.0,30.07,ENE,59,0.0,0.0,94,0.00,,,0.00,,2013-04-16 12:42:00,
2013-04-16 08:52:00,72.0,70.0,30.08,NE,40,0.0,3.0,93,0.00,,,0.00,,2013-04-16 12:52:00,
2013-04-16 09:02:00,73.0,70.0,30.08,NE,49,0.0,4.0,90,0.00,,,0.00,,2013-04-16 13:02:00,
2013-04-16 09:12:00,73.0,70.0,30.08,NE,49,0.0,4.0,90,0.00,,,0.00,,2013-04-16 13:12:00,
2013-04-16 09:22:00,74.0,70.0,30.08,NE,55,0.0,4.0,88,0.00,,,0.00,,2013-04-16 13:22:00,
2013-04-16 09:32:00,76.0,71.0,30.08,ENE,62,0.0,3.0,84,0.00,,,0.00,,2013-04-16 13:32:00,
2013-04-16 09:42:00,76.0,71.0,30.08,ENE,62,0.0,3.0,84,0.00,,,0.00,,2013-04-16 13:42:00,
2013-04-16 09:52:00,78.0,71.0,30.08,NE,54,3.0,4.0,80,0.00,,,0.00,,2013-04-16 13:52:00,
2013-04-16 10:02:00,79.0,72.0,30.08,ENE,78,2.0,4.0,78,0.00,,,0.00,,2013-04-16 14:02:00,
2013-04-16 10:12:00,79.0,72.0,30.08,ENE,78,2.0,4.0,78,0.00,,,0.00,,2013-04-16 14:12:00,
2013-04-16 10:22:00,79.0,72.0,30.08,ENE,78,2.0,4.0,78,0.00,,,0.00,,2013-04-16 14:22:00,
2013-04-16 10:32:00,79.0,72.0,30.08,ENE,78,2.0,4.0,78,0.00,,,0.00,,2013-04-16 14:32:00,
2013-04-16 11:22:00,84.0,73.0,30.08,ESE,105,1.0,7.0,69,0.00,,,0.00,,2013-04-16 15:22:00,
2013-04-16 11:33:00,85.0,72.0,30.08,East,79,0.0,7.0,66,0.00,,,0.00,,2013-04-16 15:33:00,
2013-04-16 11:43:00,85.0,72.0,30.08,East,79,0.0,7.0,66,0.00,,,0.00,,2013-04-16 15:43:00,
2013-04-16 11:53:00,85.0,72.0,30.08,East,79,0.0,7.0,66,0.00,,,0.00,,2013-04-16 15:53:00,
2013-04-16 12:03:00,86.0,72.0,30.08,ENE,69,1.0,7.0,63,0.00,,,0.00,,2013-04-16 16:03:00,
2013-04-16 12:13:00,86.0,72.0,30.08,ENE,69,1.0,7.0,63,0.00,,,0.00,,2013-04-16 16:13:00,
2013-04-16 12:23:00,86.0,72.0,30.08,West,262,1.0,7.0,63,0.00,,,0.00,,2013-04-16 16:23:00,
2013-04-16 12:32:00,87.0,72.0,30.08,SE,144,0.0,9.0,61,0.00,,,0.00,,2013-04-16 16:32:00,
2013-04-16 12:42:00,87.0,72.0,30.08,SE,144,0.0,9.0,61,0.00,,,0.00,,2013-04-16 16:42:00,
2013-04-16 12:52:00,88.0,72.0,30.08,ENE,62,4.0,7.0,60,0.00,,,0.00,,2013-04-16 16:52:00,
2013-04-16 13:02:00,88.0,72.0,30.08,ENE,62,4.0,7.0,60,0.00,,,0.00,,2013-04-16 17:02:00,
2013-04-16 13:12:00,88.0,72.0,30.08,ENE,62,4.0,7.0,60,0.00,,,0.00,,2013-04-16 17:12:00,
2013-04-16 13:22:00,89.0,72.0,30.06,East,88,0.0,6.0,57,0.00,,,0.00,,2013-04-16 17:22:00,
2013-04-16 13:32:00,89.0,72.0,30.06,East,88,0.0,6.0,57,0.00,,,0.00,,2013-04-16 17:32:00,
2013-04-16 13:43:00,89.0,72.0,30.06,East,88,0.0,6.0,57,0.00,,,0.00,,2013-04-16 17:43:00,
2013-04-16 13:53:00,89.0,72.0,30.06,East,88,0.0,6.0,57,0.00,,,0.00,,2013-04-16 17:53:00,
2013-04-16 14:12:00,90.0,72.0,30.05,NE,43,0.0,5.0,56,0.00,,,0.00,,2013-04-16 18:12:00,
2013-04-16 14:22:00,90.0,72.0,30.05,NE,43,0.0,5.0,56,0.00,,,0.00,,2013-04-16 18:22:00,
2013-04-16 14:32:00,90.0,72.0,30.04,North,5,0.0,7.0,55,0.00,,,0.00,,2013-04-16 18:32:00,
2013-04-16 14:42:00,90.0,72.0,30.04,North,5,0.0,7.0,55,0.00,,,0.00,,2013-04-16 18:42:00,
2013-04-16 14:52:00,91.0,73.0,30.03,NNE,17,0.0,3.0,55,0.00,,,0.00,,2013-04-16 18:52:00,
2013-04-16 15:02:00,91.0,73.0,30.03,NNE,17,0.0,3.0,55,0.00,,,0.00,,2013-04-16 19:02:00,
2013-04-16 15:12:00,91.0,73.0,30.03,NNE,17,0.0,3.0,55,0.00,,,0.00,,2013-04-16 19:12:00,
2013-04-16 15:22:00,92.0,72.0,30.02,SE,144,0.0,4.0,52,0.00,,,0.00,,2013-04-16 19:22:00,
2013-04-16 15:32:00,92.0,72.0,30.02,NE,40,2.0,5.0,52,0.00,,,0.00,,2013-04-16 19:32:00,
2013-04-16 15:43:00,92.0,72.0,30.02,NE,40,2.0,5.0,52,0.00,,,0.00,,2013-04-16 19:43:00,
2013-04-16 15:52:00,92.0,72.0,30.01,ENE,65,1.0,5.0,52,0.00,,,0.00,,2013-04-16 19:52:00,
2013-04-16 16:02:00,92.0,71.0,30.01,East,93,0.0,5.0,51,0.00,,,0.00,,2013-04-16 20:02:00,
2013-04-16 16:12:00,92.0,71.0,30.01,East,93,0.0,5.0,51,0.00,,,0.00,,2013-04-16 20:12:00,
2013-04-16 16:22:00,92.0,71.0,30.00,ENE,71,0.0,2.0,51,0.00,,,0.00,,2013-04-16 20:22:00,
2013-04-16 16:32:00,91.0,70.0,30.00,ENE,65,0.0,7.0,51,0.00,,,0.00,,2013-04-16 20:32:00,
2013-04-16 16:42:00,91.0,70.0,30.00,ENE,65,0.0,7.0,51,0.00,,,0.00,,2013-04-16 20:42:00,
2013-04-16 16:52:00,91.0,70.0,30.00,ENE,65,0.0,7.0,51,0.00,,,0.00,,2013-04-16 20:52:00,
2013-04-16 17:02:00,91.0,70.0,30.00,ENE,65,0.0,7.0,51,0.00,,,0.00,,2013-04-16 21:02:00,
2013-04-16 17:22:00,91.0,74.0,29.99,ENE,59,3.0,9.0,58,0.00,,,0.00,,2013-04-16 21:22:00,
2013-04-16 17:33:00,90.0,74.0,30.00,NNE,32,5.0,9.0,60,0.00,,,0.00,,2013-04-16 21:33:00,
2013-04-16 17:43:00,90.0,74.0,30.00,NNE,32,5.0,9.0,60,0.00,,,0.00,,2013-04-16 21:43:00,
2013-04-16 17:53:00,91.0,74.0,30.00,ENE,78,1.0,9.0,57,0.00,,,0.00,,2013-04-16 21:53:00,
2013-04-16 18:03:00,90.0,74.0,30.01,ENE,78,1.0,7.0,59,0.00,,,0.00,,2013-04-16 22:03:00,
2013-04-16 18:13:00,90.0,74.0,30.01,ENE,78,1.0,7.0,59,0.00,,,0.00,,2013-04-16 22:13:00,
2013-04-16 18:22:00,86.0,75.0,30.02,SSE,167,2.0,7.0,69,0.00,,,0.00,,2013-04-16 22:22:00,
2013-04-16 18:33:00,86.0,75.0,30.02,SSE,167,2.0,7.0,69,0.00,,,0.00,,2013-04-16 22:33:00,
2013-04-16 18:42:00,86.0,75.0,30.02,SSE,167,2.0,7.0,69,0.00,,,0.00,,2013-04-16 22:42:00,
2013-04-16 18:52:00,85.0,75.0,30.02,ENE,62,3.0,10.0,71,0.00,,,0.00,,2013-04-16 22:52:00,
2013-04-16 19:02:00,85.0,75.0,30.02,ENE,62,3.0,10.0,71,0.00,,,0.00,,2013-04-16 23:02:00,
2013-04-16 19:12:00,85.0,75.0,30.02,ENE,62,3.0,10.0,71,0.00,,,0.00,,2013-04-16 23:12:00,
2013-04-16 19:22:00,84.0,74.0,30.03,NE,46,3.0,7.0,71,0.00,,,0.00,,2013-04-16 23:22:00,
2013-04-16 19:32:00,84.0,74.0,30.03,NE,46,3.0,7.0,71,0.00,,,0.00,,2013-04-16 23:32:00,
2013-04-16 19:43:00,84.0,74.0,30.03,NE,46,3.0,7.0,71,0.00,,,0.00,,2013-04-16 23:43:00,
2013-04-16 19:52:00,84.0,74.0,30.03,NE,46,3.0,7.0,71,0.00,,,0.00,,2013-04-16 23:52:00,
2013-04-16 20:02:00,83.0,74.0,30.05,South,184,2.0,10.0,74,0.00,,,0.00,,2013-04-17 00:02:00,
2013-04-16 20:12:00,83.0,74.0,30.05,South,184,2.0,10.0,74,0.00,,,0.00,,2013-04-17 00:12:00,
2013-04-16 20:22:00,79.0,73.0,30.05,SE,134,0.0,10.0,82,0.00,,,0.00,,2013-04-17 00:22:00,
2013-04-16 20:32:00,79.0,73.0,30.05,SE,134,0.0,10.0,82,0.00,,,0.00,,2013-04-17 00:32:00,
2013-04-16 20:42:00,79.0,73.0,30.05,SE,134,0.0,10.0,82,0.00,,,0.00,,2013-04-17 00:42:00,
2013-04-16 21:02:00,78.0,74.0,30.06,SE,144,0.0,3.0,88,0.00,,,0.00,,2013-04-17 01:02:00,
2013-04-16 21:12:00,78.0,74.0,30.06,SE,144,0.0,3.0,88,0.00,,,0.00,,2013-04-17 01:12:00,
2013-04-16 21:22:00,79.0,73.0,30.06,NE,44,1.0,3.0,82,0.00,,,0.00,,2013-04-17 01:22:00,
2013-04-16 21:32:00,79.0,73.0,30.07,ESE,108,1.0,7.0,81,0.00,,,0.00,,2013-04-17 01:32:00,
2013-04-16 21:42:00,79.0,73.0,30.07,ESE,108,1.0,7.0,81,0.00,,,0.00,,2013-04-17 01:42:00,
2013-04-16 21:52:00,79.0,73.0,30.07,ESE,108,1.0,7.0,81,0.00,,,0.00,,2013-04-17 01:52:00,
2013-04-16 22:02:00,79.0,73.0,30.09,ENE,69,0.0,5.0,81,0.00,,,0.00,,2013-04-17 02:02:00,
2013-04-16 22:12:00,79.0,73.0,30.09,ENE,69,0.0,5.0,81,0.00,,,0.00,,2013-04-17 02:12:00,
2013-04-16 22:22:00,78.0,72.0,30.09,NE,51,1.0,5.0,81,0.00,,,0.00,,2013-04-17 02:22:00,
2013-04-16 22:32:00,78.0,72.0,30.09,NE,51,1.0,5.0,81,0.00,,,0.00,,2013-04-17 02:32:00,
2013-04-16 22:42:00,78.0,72.0,30.09,NE,51,1.0,5.0,81,0.00,,,0.00,,2013-04-17 02:42:00,
2013-04-16 22:52:00,78.0,72.0,30.09,NE,34,0.0,5.0,81,0.00,,,0.00,,2013-04-17 02:52:00,
2013-04-16 23:02:00,78.0,72.0,30.09,ENE,77,3.0,7.0,81,0.00,,,0.00,,2013-04-17 03:02:00,
2013-04-16 23:12:00,78.0,72.0,30.09,ENE,77,3.0,7.0,81,0.00,,,0.00,,2013-04-17 03:12:00,
2013-04-16 23:22:00,77.0,71.0,30.10,NE,42,6.0,6.0,81,0.00,,,0.00,,2013-04-17 03:22:00,
2013-04-16 23:33:00,77.0,71.0,30.10,NE,42,6.0,6.0,81,0.00,,,0.00,,2013-04-17 03:33:00,
2013-04-16 23:42:00,77.0,71.0,30.10,NE,42,6.0,6.0,81,0.00,,,0.00,,2013-04-17 03:42:00,
2013-04-16 23:53:00,76.0,70.0,30.10,NE,45,0.0,4.0,82,0.00,,,0.00,,2013-04-17 03:53:00,